Location: Cahen
(50.7886°N, 1.9562°E)
Time: 07:07:17
(UTC+00:00)

Daily predictions for brighter satellites

Satellite Brightness Start Highest point End
(mag) Time Altitude Azimuth Time Altitude Azimuth Time Altitude Azimuth
USA 234 3.7 16:54:08 10° ENE 17:00:27 52° N 17:06:46 10° WNW
YAOGAN 1 4.1 16:58:08 10° E 17:00:43 16° ENE 17:03:19 10° NNE
ATLAS 5 CENTAUR R/B 2.0 16:57:19 10° SSW 17:01:09 44° SE 17:05:29 10° NE
CZ-4C R/B 2.8 16:58:31 10° NNE 17:01:38 56° ESE 17:04:45 10° S
Cosmos 2082 4.3 16:56:13 10° SW 17:01:52 58° NW 17:07:30 10° NNE
FengYun 1-2 T 4.3 16:57:12 10° SSE 17:02:40 62° ENE 17:08:13 10° N
Tsikada Rocket 4.0 16:57:31 10° S 17:03:50 82° E 17:10:07 10° NNE
NOAA 12 4.1 16:59:19 10° SSE 17:04:34 82° ENE 17:09:50 10° NNW
SL-14 R/B 3.6 17:01:54 10° SSE 17:05:37 45° E 17:09:23 10° NNE
RESURS DK-1 2.4 17:02:36 10° SSW 17:06:44 75° ESE 17:10:53 10° NE
ATLAS 3B R/B 3.5 17:00:01 10° NW 17:06:50 60° SW 17:13:54 10° SSE
Cosmos 2228 3.2 17:03:19 10° N 17:07:30 50° ENE 17:11:39 10° SSE
Cosmos 1400 Rocket 4.0 17:03:48 10° NNW 17:07:47 50° W 17:11:44 10° S
Cosmos 1538 Rocket 4.3 17:08:45 10° NNW 17:13:43 44° ENE 17:18:39 10° SE
CZ-4C R/B 2.5 17:09:13 10° SW 17:14:21 67° NW 17:20:38 10° NE
Meteor 2-5 Rocket 3.8 17:09:05 10° S 17:14:32 59° E 17:19:58 10° NNE
CZ-3B R/B 1.5 17:13:32 10° WNW 17:15:31 44° NNE 17:19:23 10° E
SJ 16-02 3.2 17:15:36 10° ESE 17:17:31 13° E 17:18:57 11° ENE
CORIOLIS 4.2 17:15:55 10° SSE 17:21:19 87° WSW 17:26:45 10° NNW
Cosmos 2263 Rocket 2.2 17:16:28 10° SSW 17:22:08 74° ESE 17:27:48 10° NNE
Cosmos 1455 3.5 17:21:55 10° NNE 17:24:49 20° ENE 17:27:43 10° ESE
Cosmos 968 Rocket 4.1 17:19:49 10° SW 17:24:50 56° WNW 17:29:53 10° NNE
Cosmos 1354 Rocket 4.0 17:21:27 10° SSW 17:26:46 80° ESE 17:32:08 10° NNE
NOAA 11 4.3 17:21:16 10° SSE 17:26:47 87° WSW 17:32:20 10° NNW
Cosmos 2058 Rocket 3.6 17:22:39 10° N 17:26:53 38° ENE 17:31:06 10° SE
USA-17 4.3 17:24:45 10° SW 17:28:19 83° NW 17:30:59 13° NE
Cosmos 1300 2.7 17:25:26 10° N 17:29:17 87° WSW 17:33:05 10° S
NOSS 7 (H) 4.3 17:30:01 10° SW 17:33:12 69° NW 17:35:33 15° NE
Landsat 5 3.7 17:30:15 10° N 17:34:13 64° WNW 17:38:02 10° SSW
GENESIS II 4.2 17:32:06 10° SW 17:36:06 78° SE 17:39:28 14° NE
ADEOS Rocket 4.4 17:32:21 10° N 17:37:57 36° WNW 17:43:06 10° SW
ARGOS 4.0 17:34:33 10° ESE 17:39:01 28° ENE 17:43:31 10° N
NOSS 3-1 (C) 4.3 17:33:16 10° NW 17:39:55 45° NNE 17:47:11 12° E
Lacrosse 5 1.8 17:34:50 10° WNW 17:39:55 74° NNE 17:44:58 10° ESE
CREW DRAGON DEMO-1 DEB 2.6 17:37:10 10° W 17:40:04 82° N 17:41:52 21° E
Cosmos 1943 4.2 17:36:17 10° NW 17:41:46 51° WSW 17:47:12 10° S
Okean 1-7 Rocket 4.3 17:37:43 10° SSE 17:41:47 33° E 17:45:54 10° NNE
Cosmos 1726 Rocket 3.5 17:38:08 10° N 17:42:32 81° E 17:46:55 10° SSE
ERS-2 3.2 17:42:03 18° ENE 17:43:40 25° E 17:46:41 10° SSE
ISS -1.6 17:42:18 10° S 17:44:04 14° SE 17:45:00 12° ESE
CZ-2C R/B 4.3 17:45:49 15° E 17:45:49 15° E 17:48:06 10° ESE
Cosmos 1939 Rocket 2.9 17:41:44 10° SSE 17:45:52 89° ENE 17:49:58 10° NNW
Meteor 1-24 Rocket 3.5 17:43:16 10° S 17:48:38 86° E 17:53:58 10° NNE
COSMOS 2455 3.2 17:43:45 10° S 17:49:29 47° ESE 17:54:02 16° NE
Cosmos 1833 Rocket 3.9 17:48:47 10° NNW 17:53:04 22° NE 17:54:41 19° ENE
Cosmos 2082 Rocket 3.8 17:51:05 10° N 17:54:41 17° NNE 17:55:56 16° NE
Cosmos 1315 Rocket 4.1 17:51:16 10° NNW 17:55:03 44° W 17:58:51 10° SSW
IRS-1C Rocket 4.0 17:51:32 10° SSE 17:56:45 72° ENE 18:02:01 10° NNW
USA 229 DEB 4.3 17:50:08 10° NW 17:56:52 43° NNE 18:01:49 20° E
USA 229 4.3 17:50:14 10° NW 17:56:58 43° NNE 18:01:52 20° E
CZ-4 R/B 1.5 17:54:12 10° SE 17:58:11 51° ENE 18:02:07 10° N
Feng Yun 1-1 Rocket 4.2 17:54:02 10° SSE 17:59:28 86° WSW 18:05:04 10° NNW
COSMO-SKYMED 1 2.5 17:56:55 10° NNE 18:01:16 65° ESE 18:05:34 10° S
NOSS 3-4 (A) 4.4 17:56:14 10° W 18:01:54 40° NNW 18:07:06 14° NE
NOSS 3-4 (C) 4.4 17:56:23 10° W 18:02:02 40° NNW 18:07:15 14° NE
Cosmos 2279 Rocket 4.3 17:56:01 10° NNW 18:02:16 71° W 18:08:28 10° S
Cosmos 2227 Rocket 4.3 18:06:27 10° WNW 18:10:18 18° NNW 18:14:09 10° N
CZ-4B R/B 1.4 18:08:13 11° NNE 18:11:28 81° WNW 18:14:47 10° SSW
CZ-4 R/B 4.5 18:07:30 10° SSE 18:11:38 83° WSW 18:15:49 10° NNW
NOSS 3-1 (A) 4.3 18:05:47 10° NW 18:12:28 45° NNE 18:16:57 24° E
Okean-O 2.5 18:09:55 10° SSE 18:14:19 69° ENE 18:18:45 10° N
Cosmos 923 Rocket 4.0 18:10:10 10° NNW 18:15:30 63° ENE 18:20:47 10° SE
CZ-2C R/B 3.3 18:10:33 10° SSE 18:15:52 82° WSW 18:21:32 10° NNW
Cosmos 1844 Rocket 2.9 18:11:11 10° S 18:16:34 47° ESE 18:19:25 26° NE
Okean O Rocket 3.8 18:13:36 10° SSW 18:17:28 29° W 18:21:21 10° NW
Cosmos 1689 Rocket 4.0 18:20:00 18° SSE 18:20:00 18° SSE 18:20:54 10° S
H-2A R/B 1.9 18:13:21 10° SSE 18:18:18 68° ENE 18:23:25 10° N
Meteor 1-21 Rocket 4.3 18:14:15 10° SSE 18:19:31 49° E 18:24:52 10° NNE
ATLAS 2AS CENTAUR R/B 3.7 18:11:58 10° WSW 18:19:34 47° NNW 18:25:31 16° NE
Aureole 2 Rocket 2.4 18:16:56 10° S 18:19:28 48° SE 18:19:28 48° SE
Cosmos 158 Rocket 3.9 18:15:35 10° NNW 18:20:55 74° ENE 18:26:19 10° SSE
Cosmos 1680 Rocket 3.5 18:17:42 10° NNW 18:22:54 56° ENE 18:26:36 19° SE
SAR-Lupe-4 3.4 18:31:27 66° E 18:31:36 66° ESE 18:35:08 10° S
Meteor 2-10 Rocket 4.3 18:26:49 10° NNW 18:32:17 58° W 18:37:30 10° S
Cosmos 1602 Rocket 4.5 18:28:56 10° SSE 18:31:34 31° SE 18:31:34 31° SE
Cosmos 1818 3.7 18:28:00 10° SSW 18:33:17 55° ESE 18:34:52 40° ENE
H-2A R/B 4.0 18:29:38 10° N 18:33:30 29° WNW 18:37:19 10° WSW
YAOGAN 1 2.6 18:31:57 10° S 18:36:16 79° WSW 18:40:38 10° NNW
Cosmos 1892 Rocket 4.4 18:33:42 10° SSW 18:37:55 50° WNW 18:42:10 10° N
CSL-04 Rocket 3.5 18:34:47 10° SSE 18:40:10 73° ENE 18:45:40 10° NNW
Helios 1A Rocket 2.9 18:37:02 10° SSE 18:41:10 84° WSW 18:45:21 10° NNW
SAR-Lupe-1 3.9 18:42:35 83° SSE 18:42:35 83° SSE 18:46:03 10° SSW
APEX 4.5 18:35:40 10° SSW 18:42:41 88° ESE 18:46:30 26° NNE
USA 234 3.3 18:40:20 36° E 18:43:01 63° NNE 18:49:29 10° WNW
MOS 1 Rocket 3.5 18:41:11 10° N 18:45:29 62° WNW 18:49:42 10° SSW
Iridium 4 Rocket 3.6 18:39:46 10° N 18:45:32 66° E 18:50:51 10° SSE
ATLAS 5 CENTAUR R/B 2.7 18:41:55 10° W 18:45:51 37° NNW 18:47:37 27° NNE
Cosmos 1092 Rocket 3.9 18:40:28 10° S 18:46:35 66° E 18:52:42 10° NNE
Meteor 2-1 Rocket 4.5 18:41:09 10° NNW 18:46:43 68° W 18:52:10 10° S
Cosmos 1812 Rocket 3.4 18:44:10 10° N 18:48:36 73° ENE 18:48:54 69° ESE
Cosmos 2344 4.2 18:43:21 10° NW 18:52:11 72° NE 18:59:36 27° ESE
SL-24 R/B - RUBIN 2 4.5 18:45:36 10° SSW 18:52:16 76° SE 18:54:49 40° NE
SJ 16-02 1.3 18:50:59 10° SSW 18:55:24 85° WNW 18:55:59 67° N
Aureole 3 4.2 18:52:49 10° NNW 18:56:18 40° W 18:59:16 10° SSW
Cosmos 2112 Rocket 3.9 18:55:07 10° NNW 19:00:25 89° WSW 19:02:18 41° SSE
Cosmos 1455 3.6 18:57:01 10° NNW 19:00:35 39° W 19:04:09 10° SSW
MetOp-A 4.5 19:04:29 47° NNE 19:04:29 47° NNE 19:08:38 10° N
CZ-4C R/B 3.7 18:59:03 10° WNW 19:04:02 30° NNW 19:06:30 23° NNE
Nadezhda 4 Rocket 4.4 18:57:52 10° SSW 19:04:03 63° WNW 19:10:14 10° N
Cosmos 2263 Rocket 3.9 19:01:50 10° W 19:06:38 27° NW 19:10:38 13° N
X-37B 3.5 19:04:56 10° SW 19:05:31 13° SSW 19:05:31 13° SSW
COSMOS 2406 3.2 19:09:26 10° NNW 19:14:49 64° NNE 19:14:49 64° NNE
ERS-2 3.8 19:16:37 29° NW 19:17:13 31° WNW 19:20:26 10° SW
ARGOS 3.7 19:13:44 10° S 19:18:59 56° W 19:24:17 10° NNW
ISS -1.1 19:17:01 10° SW 19:17:58 17° SW 19:17:58 17° SW
Lacrosse 5 3.3 19:18:06 10° WNW 19:22:37 33° SW 19:24:15 27° SSW
CZ-2C R/B 3.0 19:27:19 56° S 19:27:19 56° S 19:31:40 10° SSW
NOSS 3-1 (C) 4.1 19:24:05 10° NW 19:31:25 76° SW 19:34:39 41° SSE
CZ-4 R/B 4.1 19:30:34 10° SW 19:33:28 19° W 19:36:22 10° NW
COSMOS 2455 3.7 19:29:42 10° WSW 19:35:29 46° NW 19:37:13 37° N
Cosmos 1553 Rocket 3.9 19:29:22 10° N 19:35:50 90° NW 19:36:14 81° S
Cosmos 1833 Rocket 3.2 19:32:14 10° NNW 19:36:25 51° NNW 19:36:25 51° NNW
Cosmos 1844 4.1 19:32:56 10° SW 19:38:33 61° NW 19:39:07 58° NNW
Cosmos 2082 Rocket 3.4 19:34:32 10° NNW 19:37:48 32° N 19:37:48 32° N
Cosmos 2026 Rocket 4.2 19:34:59 10° SSW 19:41:04 68° WNW 19:47:17 10° N
USA 281 3.9 19:43:33 40° N 19:43:33 40° N 19:48:03 10° NNW
USA 229 DEB 3.9 19:41:11 10° NW 19:48:26 77° SW 19:49:18 69° S
USA 229 3.9 19:41:17 10° NW 19:48:32 78° SW 19:49:21 70° S
USA 267 3.9 19:51:34 42° S 19:51:34 42° S 19:56:03 10° SW
H-2A R/B 4.5 19:54:41 10° SW 19:58:16 20° W 20:01:57 10° NW
Cosmos 1844 Rocket 3.8 19:55:21 10° WSW 20:00:37 38° NW 20:01:07 37° NW
NOSS 3-1 (A) 4.0 19:56:38 10° NW 20:04:00 75° SW 20:04:27 73° SSW
ATLAS 2AS CENTAUR R/B 4.1 20:05:34 10° WNW 20:12:25 31° N 20:12:56 31° N
USA 234 3.9 20:27:41 51° W 20:27:41 51° W 20:32:35 10° WNW
SJ 16-02 4.4 20:32:10 10° W 20:33:02 12° WNW 20:33:02 12° WNW
CZ-4C R/B 4.4 20:49:01 10° NW 20:51:41 22° NNW 20:51:41 22° NNW
